FLOCK 4G 11

导读

FLOCK 4G 11是美国发射的一颗商业遥感卫星,隶属于Planet公司的“鸽群”(Flock)卫星星座,该星座由多颗超小型立方体卫星组成,具备全球高频率对地观测能力,广泛应用于农业监测、城市规划、灾害评估等领域。 该卫星于2025年1月14日发射,延续了Flock系列高分辨率、低成本的设计特点,进一步补充了星座的观测能力,为全球用户提供近实时的地球影像数据服务。

Basic Information
目录编号:
62629
目录名称:
FLOCK 4G 11
国际标识:
2025-009W
轨道中心:
EARTH
卫星名称:
FLOCK 4G 11
卫星全名:
FLOCK 4G 11
卫星状态:
在轨 (已飞行599 天)
发射日期:
2025-01-14 UTC
国别 :
美国 (US)
星等 :
--
Orbit Information
数据来源 国际轨道数据
星历时间: 2026-09-04T20:00:38+0800
20小时前
查看轨道信息
半长轴: 6851.463km
偏心率: 0.0003684
轨道倾角: 97.387°
近地点辐角 61.535°
升交点赤经 328.526°
平近点角 298.627°
近地点: 470.801km
远地点: 475.851km
周期: 94.066分钟
每日圈数: 15.308331
Detailed Information
使用方式:
暂无
2D Orbit Map
3D Orbit Map
Orbit Altitude Analysis Chart
Orbit Inclination Analysis Chart
Orbit Comprehensive Analysis Chart
View Comprehensive Chart
Conjunction Data List
Event ID Objects TCA Miss Dist (km) Collision Risk Probability Collision Risk Index (CRI) Action
CDM_260906-095201-312106-262925
SL-3 R/B (13121)
2026-09-06T
09:52:30+0000
1.511 km
极远距离
6.50448E-6 低风险 0.51
CDM_260906-122706-262906-387221
2026-09-06T
12:27:13+0000
2.147 km
极远距离
2.429432E-6 低风险 0.43
CDM_260903-230503-132706-262922
2026-09-03T
23:05:27+0000
1.579 km
极远距离
2.164961E-6 低风险 0.42